Regional Weather Roundup
Issued by NWS

Home | Current Version | Previous Version | Text Only | Print | Product List | Glossary Off
Versions: 1 2 3 4 5 6 7 8 9 10 11 12 13 14 15 16 17 18 19 20 21 22 23 24 25 26 27 28 29 30 31 32 33 34 35 36 37 38 39 40 41 42 43 44 45 46 47 48 49 50

000
ASUS43 KLOT 260310
RWRIL

ILLINOIS REGIONAL WEATHER ROUNDUP
NATIONAL WEATHER SERVICE CHICAGO/ROMEOVILLE IL
1000 PM CDT FRI JUL 25 2014

NOTE: "FAIR" INDICATES FEW OR NO CLOUDS BELOW 12,000 FEET WITH NO
SIGNIFICANT WEATHER AND/OR OBSTRUCTIONS TO VISIBILITY.

* THESE STATIONS ARE NOT UNDER NWS QUALITY CONTROL. THEY ALSO MAY NOT
  REPORT WEATHER SUCH AS PRECIPITATION OR FOG.

ILZ001-002-007-009-015-016-024-260400-
NORTHWEST ILLINOIS

CITY           SKY/WX    TMP DP  RH WIND       PRES   REMARKS
MOLINE         CLOUDY    69  64  84 SE9       29.87S
STERLING*      CLOUDY    66  61  82 SE8       29.91S
SAVANNA*       CLOUDY    67  61  79 SE7       29.90S
$$

ILZ003-004-008-010-011-017-018-260400-
NORTH CENTRAL ILLINOIS

CITY           SKY/WX    TMP DP  RH WIND       PRES   REMARKS
ROCKFORD       CLOUDY    67  59  75 S8        29.94S
FREEPORT*      CLOUDY    64  59  86 SE7       29.94S
ROCHELLE*      CLOUDY    67  59  77 S6        29.93S
DE KALB*       CLOUDY    65  60  84 S6        29.94F
PERU*          CLOUDY    68  61  77 SE7       29.93S
$$

ILZ005-006-012>014-019>023-260400-
NORTHEAST ILLINOIS

CITY           SKY/WX    TMP DP  RH WIND       PRES   REMARKS
CHICAGO-OHARE  CLOUDY    71  57  61 SW7       29.93S
CHICAGO-MIDWAY CLOUDY    73  60  63 SW10      29.94R
AURORA         CLOUDY    69  59  70 S7        29.94S
LANSING*       CLOUDY    68  59  73 S6        29.95S
JOLIET*        CLOUDY    69  59  70 CALM      29.95S
WAUKEGAN       CLEAR     65  58  78 S3        29.93R
DUPAGE AIRPORT CLOUDY    69  60  73 S10       29.93S
KANKAKEE*      CLOUDY    68  61  77 S7        29.95F
WHEELING       CLOUDY    73  59  61 SW7       29.94R
MORRIS*        CLOUDY    69  62  77 S3        29.94S
ROMEOVILLE*    CLOUDY    69  58  67 SW8       29.95R
NORTHERLY ISL    N/A     72  58  61 S6          N/A
$$

LMZ740>746-260400-
SOUTHERN LAKE MICHIGAN

STATION/POSITION SKY/WX   TEMP    WIND        PRES    VSBY  WAVE
                          AIR SEA DIR/SP/G                  HT/PER
                          (F)     (DEG/KT/KT) (MB)    (MI)  (FT/S)
SOUTHERN BUOY              64 62  180/  8/ 10 1013.7R         1/ 4
WAUKEGAN HARBOR            69     220/  7/  8   N/A
HARRISON CRIB              71     200/ 13/ 15   N/A
BURNHAM HARBOR             72     180/  7/ 12   N/A
CALUMET HARBOR             71     200/  7/ 10 1012.6
MICHIGAN CITY              68     160/  7/ 10   N/A
MICHIGAN CITY 6N           68 68  160/  8/ 10   N/A           1
ST. JOSEPH                 67 66  150/  6/  8   N/A           1/ 2
$$

ILZ025>027-034>036-040-047-049-050-058-095>099-260400-
WEST-CENTRAL ILLINOIS

CITY           SKY/WX    TMP DP  RH WIND       PRES   REMARKS
QUINCY         CLEAR     71  64  78 SE9       29.86S
GALESBURG*     CLOUDY    69  64  83 SE8       29.89R
MACOMB*        CLOUDY    69  62  78 SE9       29.90S
JACKSONVILLE*  MOCLDY    72  63  75 SE10      29.91S
PITTSFIELD*    CLOUDY    71  64  77 SE5       29.89S
$$

ILZ028>032-037-038-041>044-048-051>054-059>061-260400-
CENTRAL ILLINOIS

CITY           SKY/WX    TMP DP  RH WIND       PRES   REMARKS
PONTIAC        CLOUDY    70  63  78 SE6       29.94S
DECATUR        CLOUDY    68  62  81 SE8       29.96R
PEORIA         CLOUDY    70  61  73 SE10      29.92R
LACON*         CLOUDY    67  60  76 SE10      29.91F
LINCOLN*       CLOUDY    69  63  79 SE7       29.91S
SPRINGFIELD    CLOUDY    70  63  78 SE14      29.92S
TAYLORVILLE    CLOUDY    66  61  82 SE10      29.95S
$$

ILZ033-039-045-046-055>057-062-063-260400-
EAST-CENTRAL ILLINOIS

CITY           SKY/WX    TMP DP  RH WIND       PRES   REMARKS
CHAMPAIGN      CLOUDY    67  62  84 SE7       29.97S
DANVILLE*      CLOUDY    68  60  76 S7        29.96S
RANTOUL*       PTCLDY    68  62  79 SE5       29.98S
MATTOON        MOCLDY    64  61  90 SE6       29.98R
PARIS*         MOCLDY    62  61  96 CALM      29.99F
$$

ILZ079-100>102-260400-
SOUTHWEST ILLINOIS

CITY           SKY/WX    TMP DP  RH WIND       PRES   REMARKS
BELLEVILLE     CLEAR     68  65  90 E3        29.92R
CAHOKIA*       CLEAR     71  64  78 SE5       29.92R
SPARTA*        CLEAR     70  63  78 S5        29.93S
$$

ILZ064>066-069>071-074>076-080>082-084>086-088>090-092>094-260400-
SOUTH-CENTRAL ILLINOIS

CITY           SKY/WX    TMP DP  RH WIND       PRES   REMARKS
CARBONDALE     CLEAR     68  62  81 S5        29.94R
CAIRO*         PTCLDY    73  65  74 SW5       29.95S
EFFINGHAM*     CLEAR     64  60  87 E6        29.98R
MARION         CLEAR     70  63  78 S6        29.95S
MT. VERNON     CLEAR     66  59  77 NE3       29.98R
CENTRALIA*     CLEAR     64  61  89 E3        29.97R
SALEM*         CLEAR     69  64  85 E5        29.97S
METROPOLIS*    PTCLDY    65  62  89 CALM      29.97R
$$

ILZ067-068-072-073-078-083-087-091-260400-
SOUTHEAST ILLINOIS

CITY           SKY/WX    TMP DP  RH WIND       PRES   REMARKS
LAWRENCEVILLE  CLEAR     66  62  87 E5        29.99R
FLORA*         CLEAR     62  61  96 CALM      29.98S
FAIRFIELD*     CLEAR     64  63  94 CALM      29.98R
HARRISBURG*    CLEAR     65  64  98 SE3       29.98R
ROBINSON*      CLEAR     64  62  94 CALM      30.00R
CARMI*         CLEAR     64  64 100 E3        29.98R
$$

ABBREVIATIONS USED IN REMARKS
   TC - TEMPERATURE IN CELSIUS
  WCI - WIND CHILL INDEX
   HX - HEAT INDEX
  VSB - VISIBILITY
$$




USA.gov is the U.S. government's official web portal to all federal, state and local government web resources and services.